Back to catalog

BREEZE-M DEB

LostHEO
NORAD 48527·DEBRIS·🇷🇺 Russia

Launched Feb 28, 2006 from Baikonur Cosmodrome

Loading…

Next Passes (next 24 hours)

TLE

StaleSource: Space-Track

Epoch: Jun 15, 2021, 17:24 UTC

1 48527U 06006DJ  21166.72537126  .00002986  00000-0  21540-2 0  9996
2 48527  51.8199 217.6048 4891032 225.9475  81.6884  5.65206049 12960

Track BREEZE-M DEB in real time with AllMySat

Download on the App Store